Flight Track Log - Related Links

Times and Time Zones

All times are in EDT time to prevent confusion due to time zone crossing. See the ASQ4577 flight status page for this flight to view local times or setup timezone preferences in your user account.

Time Position Orientation Groundspeed Altitude Reporting Facility
EDT Latitude Longitude Course Direction KTS MPH feet Rate Location/Type
Thu 15:25:38 39.8833 -104.6000 72° East 192 221 6,300  Level Denver TRACON
Thu 15:26:44 39.8833 -104.5167 90° East 244 281 7,600 1,333 Climbing Denver TRACON
Thu 15:27:44 39.8667 -104.4000 101° East 290 334 9,100 1,735 Climbing Denver TRACON
Thu 15:28:07 39.8739 -104.3672 74° East 284 327 10,000 1,482 Climbing Denver Center
Thu 15:29:09 39.8614 -104.2450 98° East 321 369 11,200 1,258 Climbing Denver Center
Thu 15:30:11 39.8283 -104.1261 110° East 350 403 12,600 1,463 Climbing Denver Center
Thu 15:31:00 39.8822 -103.7379 72° East  Level FlightAware Approximate
Thu 15:31:12 39.7956 -104.0031 109° East 360 414 14,200  Level Denver Center
Thu 15:32:14 39.7675 -103.8636 105° East 371 427 15,900 1,452 Climbing Denver Center
Thu 15:33:16 39.7706 -103.7306 88° East 376 433 17,200 1,452 Climbing Denver Center
Thu 15:34:18 39.7639 -103.5794 93° East 382 440 18,900 1,645 Climbing Denver Center
Thu 15:35:20 39.7392 -103.4494 104° East 386 444 20,600 1,512 Climbing Denver Center
Thu 15:36:21 39.7128 -103.3058 103° East 384 442 22,000 1,220 Climbing Denver Center
Thu 15:37:23 39.6933 -103.1706 101° East 395 455 23,100 1,016 Climbing Denver Center
Thu 15:38:25 39.6717 -103.0089 100° East 408 470 24,100 1,113 Climbing Denver Center
Thu 15:39:27 39.6517 -102.8669 100° East 418 481 25,400 1,355 Climbing Denver Center
Thu 15:40:29 39.6325 -102.6997 98° East 418 481 26,900 1,355 Climbing Denver Center
Thu 15:41:31 39.6183 -102.5572 97° East 416 479 28,200 1,258 Climbing Denver Center
Thu 15:42:33 39.6075 -102.4181 96° East 409 471 29,500 1,268 Climbing Denver Center
Thu 15:43:34 39.5983 -102.2578 94° East 403 464 30,800 732 Climbing Denver Center
Thu 15:44:36 39.5908 -102.1169 94° East 410 472 31,000 97 Climbing Denver Center
Thu 15:45:38 39.5892 -101.9381 91° East 444 511 31,000  Level Denver Center
Thu 15:46:40 39.5953 -101.7769 87° East 466 536 31,000  Level Denver Center
Thu 15:47:42 39.6044 -101.5811 86° East 484 557 31,000  Level Denver Center
Thu 15:48:44 39.6275 -101.4139 80° East 492 566 31,000 242 Level Denver Center
Thu 15:49:46 39.6736 -101.2308 72° East 481 554 31,500 968 Climbing Denver Center
Thu 15:50:48 39.7094 -101.0744 73° East 475 547 33,000 1,548 Climbing Denver Center
Thu 15:51:50 39.7492 -100.9039 73° East 448 516 34,700 968 Climbing Denver Center
Thu 15:52:52 39.7822 -100.7617 73° East 435 501 35,000 145 Climbing Denver Center
Thu 15:53:54 39.8231 -100.5864 73° East 452 520 35,000  Level Denver Center
Thu 15:54:56 39.8592 -100.4289 73° East 471 542 35,000  Level Denver Center
Thu 15:55:57 39.8997 -100.2497 74° East 482 555 35,000  Level Denver Center
Thu 15:56:59 39.9378 -100.0803 74° East 486 559 35,000  Level Denver Center
Thu 15:58:01 39.9750 -99.9136 74° East 481 554 35,000  Level Denver Center
Thu 15:59:03 40.0117 -99.7481 74° East 478 550 35,000  Level Denver Center
Thu 16:00:07 40.0556 -99.5511 74° East 474 545 35,000  Level Denver Center
Thu 16:01:09 40.0908 -99.3878 74° East 471 542 35,000  Level Denver Center
Thu 16:02:11 40.1281 -99.2219 74° East 475 547 35,000  Level Denver Center
Thu 16:03:13 40.1633 -99.0544 75° East 479 551 35,000  Level Denver Center
Thu 16:04:15 40.2000 -98.8878 74° East 479 551 35,000  Level Denver Center
Thu 16:05:24 40.2417 -98.6908 74° East 477 549 35,000  Level Minneapolis Center
Thu 16:06:26 40.2758 -98.5264 75° East 474 545 35,000  Level Minneapolis Center
Thu 16:07:28 40.3103 -98.3636 74° East 470 541 35,000  Level Minneapolis Center
Thu 16:08:30 40.3503 -98.1686 75° East 466 536 35,000  Level Minneapolis Center
Thu 16:09:32 40.3833 -98.0069 75° East 463 533 35,000  Level Minneapolis Center
Thu 16:10:34 40.4169 -97.8456 75° East 461 531 35,000  Level Minneapolis Center
Thu 16:11:36 40.4481 -97.6839 76° East 460 529 35,000  Level Minneapolis Center
Thu 16:12:38 40.4803 -97.5222 75° East 459 528 35,000  Level Minneapolis Center
Thu 16:13:40 40.5133 -97.3594 75° East 461 531 35,000  Level Minneapolis Center
Thu 16:14:42 40.5478 -97.1903 75° East 467 537 35,000  Level Minneapolis Center
Thu 16:15:44 40.5858 -96.9961 75° East 461 531 35,000  Level Minneapolis Center
Thu 16:16:46 40.6164 -96.8347 76° East 457 526 35,000  Level Minneapolis Center
Thu 16:17:48 40.6478 -96.6731 76° East 458 527 35,000  Level Minneapolis Center
Thu 16:18:50 40.6781 -96.5106 76° East 459 528 35,000  Level Minneapolis Center
Thu 16:19:53 40.7089 -96.3475 76° East 460 529 35,000  Level Minneapolis Center
Thu 16:20:55 40.7456 -96.1506 76° East 462 532 35,000  Level Minneapolis Center
Thu 16:21:57 40.7764 -95.9869 76° East 463 533 35,000  Level Minneapolis Center
Thu 16:22:59 40.8072 -95.8231 76° East 463 533 35,000  Level Minneapolis Center
Thu 16:24:01 40.8372 -95.6567 77° East 467 537 35,000  Level Minneapolis Center
Thu 16:25:03 40.8678 -95.4908 76° East 469 540 35,000  Level Minneapolis Center
Thu 16:26:05 40.9025 -95.2978 77° East 458 527 35,000  Level Minneapolis Center
Thu 16:27:07 40.9306 -95.1400 77° East 447 514 35,000  Level Minneapolis Center
Thu 16:28:09 40.9589 -94.9781 77° East 450 518 35,000  Level Minneapolis Center
Thu 16:29:11 40.9872 -94.8156 77° East 454 522 35,000  Level Minneapolis Center
Thu 16:30:13 41.0144 -94.6564 77° East 449 517 35,000  Level Minneapolis Center
Thu 16:31:15 41.0436 -94.4825 77° East 447 514 35,000  Level Minneapolis Center
Thu 16:32:17 41.0711 -94.3225 77° East 448 516 35,000  Level Minneapolis Center
Thu 16:33:19 41.0975 -94.1581 78° East 455 524 35,000  Level Minneapolis Center
Thu 16:34:22 41.1311 -93.9597 77° East 460 529 35,000  Level Minneapolis Center
Thu 16:35:24 41.1592 -93.7953 77° East 461 531 35,000  Level Minneapolis Center
Thu 16:36:26 41.1847 -93.6331 78° East 455 524 35,000  Level Minneapolis Center
Thu 16:37:28 41.2125 -93.4692 77° East 455 524 35,000  Level Minneapolis Center
Thu 16:38:30 41.2386 -93.3053 78° East 457 526 35,000  Level Minneapolis Center
Thu 16:39:32 41.2650 -93.1419 78° East 456 525 35,000  Level Minneapolis Center
Thu 16:40:34 41.2967 -92.9394 78° East 463 533 35,000  Level Minneapolis Center
Thu 16:41:36 41.3228 -92.7697 78° East 468 539 35,000  Level Minneapolis Center
Thu 16:42:38 41.3483 -92.6003 79° East 470 541 35,000  Level Minneapolis Center
Thu 16:43:13 41.3650 -92.4975 78° East 470 541 35,000  Level Chicago Center
Thu 16:44:15 41.3917 -92.3167 79° East 461 531 35,000  Level Chicago Center
Thu 16:45:17 41.4161 -92.1508 79° East 462 532 35,000  Level Chicago Center
Thu 16:46:19 41.4411 -91.9839 79° East 465 535 35,000  Level Chicago Center
Thu 16:47:21 41.4658 -91.8142 79° East 471 542 35,000  Level Chicago Center
Thu 16:48:23 41.4961 -91.6089 79° East 477 549 35,000  Level Chicago Center
Thu 16:49:26 41.5203 -91.4378 79° East 476 548 35,000  Level Chicago Center
Thu 16:50:28 41.5444 -91.2681 79° East 472 543 35,000  Level Chicago Center
Thu 16:51:30 41.5686 -91.0975 79° East 474 545 35,000  Level Chicago Center
Thu 16:52:32 41.5917 -90.9244 80° East 478 550 35,000  Level Chicago Center
Thu 16:53:34 41.6200 -90.7186 80° East 477 549 35,000  Level Chicago Center
Thu 16:54:36 41.6419 -90.5550 80° East 471 542 35,000  Level Chicago Center
Thu 16:55:38 41.6647 -90.3847 80° East 469 540 35,000  Level Chicago Center
Thu 16:56:40 41.6872 -90.2133 80° East 466 536 35,000  Level Chicago Center
Thu 16:57:42 41.7097 -90.0375 80° East 472 543 35,000  Level Chicago Center
Thu 16:58:44 41.7367 -89.8281 80° East 474 545 35,000  Level Chicago Center
Thu 16:59:46 41.7592 -89.6519 80° East 477 549 35,000  Level Chicago Center
Thu 17:00:49 41.7811 -89.4831 80° East 476 548 35,000  Level Chicago Center
Thu 17:01:51 41.8011 -89.3111 81° East 471 542 35,000  Level Chicago Center
Thu 17:02:53 41.8256 -89.1033 81° East 472 543 35,000  Level Chicago Center
Thu 17:03:55 41.8472 -88.9300 80° East 471 542 35,000  Level Chicago Center
Thu 17:04:57 41.8672 -88.7556 81° East 474 545 35,000  Level Chicago Center
Thu 17:05:59 41.8872 -88.5819 81° East 473 544 35,000  Level Chicago Center
Thu 17:07:01 41.9075 -88.4100 81° East 467 537 35,000  Level Chicago Center
Thu 17:08:03 41.9264 -88.2406 81° East 460 529 35,000  Level Chicago Center
Thu 17:09:05 41.9492 -88.0344 81° East 464 534 35,000  Level Chicago Center
Thu 17:10:07 41.9683 -87.8603 82° East 468 539 35,000  Level Chicago Center
Thu 17:11:10 41.9878 -87.6850 81° East 473 544 35,000  Level Chicago Center
Thu 17:12:12 42.0056 -87.5111 82° East 469 540 35,000  Level Chicago Center
Thu 17:13:14 42.0225 -87.3406 82° East 464 534 35,000  Level Chicago Center
Thu 17:14:16 42.0408 -87.1683 82° East 465 535 35,000  Level Chicago Center
Thu 17:15:18 42.0631 -86.9581 82° East 474 545 35,000 -194 Level Chicago Center
Thu 17:16:20 42.0800 -86.7861 82° East 468 539 34,600 -484 Descending Chicago Center
Thu 17:17:22 42.0947 -86.6336 83° East 466 536 34,000 -290 Descending Chicago Center
Thu 17:18:24 42.1156 -86.4244 82° East 469 540 34,000  Level Chicago Center
Thu 17:19:26 42.1328 -86.2472 82° East 474 545 34,000  Level Chicago Center
Thu 17:20:29 42.1431 -86.0683 86° East 477 549 34,000  Level Chicago Center
Thu 17:21:31 42.1364 -85.8700 93° East 476 548 34,000  Level Chicago Center
Thu 17:22:33 42.1319 -85.6919 92° East 478 550 34,000 -387 Level Chicago Center
Thu 17:23:35 42.1269 -85.5128 92° East 482 555 33,200 -455 Descending Chicago Center
Thu 17:24:45 42.1233 -85.3094 91° East 474 545 33,000 -92 Descending Cleveland Center
Thu 17:25:45 42.1200 -85.1328 91° East 474 545 33,000  Level Cleveland Center
Thu 17:26:45 42.1144 -84.9531 92° East 474 545 33,000  Level Cleveland Center
Thu 17:27:45 42.1061 -84.7817 94° East 480 552 33,000  Level Cleveland Center
Thu 17:28:45 42.0981 -84.5992 93° East 480 552 33,000  Level Cleveland Center
Thu 17:29:45 42.0917 -84.4197 93° East 480 552 33,000 -850 Level Cleveland Center
Thu 17:30:45 42.0792 -84.2258 95° East 480 552 31,300 -2,250 Descending Cleveland Center
Thu 17:31:45 42.0722 -84.0492 93° East 480 552 28,500 -2,750 Descending Cleveland Center
Thu 17:32:45 42.0650 -83.8725 93° East 480 552 25,800 -2,200 Descending Cleveland Center
Thu 17:33:45 42.0572 -83.7042 94° East 475 547 24,100 -1,300 Descending Cleveland Center
Thu 17:34:45 42.0492 -83.5361 94° East 464 534 23,200 -900 Descending Cleveland Center
Thu 17:35:45 42.0367 -83.3706 96° East 447 514 22,300 -950 Descending Cleveland Center
Thu 17:36:45 42.0217 -83.2078 97° East 447 514 21,300 -1,000 Descending Cleveland Center
Thu 17:37:45 42.0067 -83.0422 97° East 447 514 20,300 -950 Descending Cleveland Center
Thu 17:38:45 41.9911 -82.8825 97° East 447 514 19,400 -706 Descending Cleveland Center
Thu 17:39:44 41.9756 -82.7197 97° East 428 493 18,900 -1,400 Descending Cleveland Center
Thu 17:40:45 41.9594 -82.5714 98° East 425 489 16,600 -2,609 Descending Cleveland Center
Thu 17:41:39 41.9239 -82.4475 111° Southeast 409 471 13,900 -2,642 Descending Cleveland Center
Thu 17:42:34 41.8864 -82.3236 112° Southeast 398 458 11,800 -1,770 Descending Cleveland Center
Thu 17:43:41 41.8406 -82.1803 113° Southeast 336 387 10,300 -1,119 Descending Cleveland Center
Thu 17:44:48 41.7683 -82.1089 144° Southeast 308 354 9,300 -919 Descending Cleveland Center
Thu 17:45:45 41.7006 -82.0403 143° Southeast 312 359 8,400 -1,026 Descending Cleveland Center
Thu 17:46:45 41.6347 -81.9750 143° Southeast 305 351 7,300 -720 Descending Cleveland Center
Thu 17:47:50 41.6025 -81.8661 112° Southeast 282 325 6,900 -619 Descending Cleveland Center
Thu 17:48:51 41.5744 -81.7767 113° Southeast 244 281 6,000 -1,033 Descending Cleveland Center
Thu 17:49:52 41.5292 -81.7147 134° Southeast 245 282 4,800 -1,406 Descending Cleveland Center
Thu 17:50:59 41.4831 -81.7444 206° Southwest 204 235 3,000 -1,426 Descending Cleveland Center
Thu 17:51:54 41.4492 -81.7881 224° Southwest 163 188 1,900 -984 Descending Cleveland Center
Thu 17:53:01 41.4175 -81.8319 226° Southwest 147 169 1,000 -806 Descending Cleveland Center
Thu 17:55:00 41.4000 -81.8500 224° Southwest  Level FlightAware Approximate

Login

Don't have an account? Register now (free) for customized features, flight alerts, and more!